Location: South Range
(44.4886°N, 65.7879°W)
Time: 21:45:57
(UTC-03:00)

Iridium 56 - Visible Passes

Search period start: 22 October 2017 00:00
Search period end: 01 November 2017 00:00
Orbit: 776 x 779 km, 86.4° (Epoch: 22 October)

Date Brightness Start Highest point End Pass type
(mag) Time Alt. Az. Time Alt. Az. Time Alt. Az.
22 Oct 8.8 05:07:18 10° NE 05:08:30 11° ENE 05:09:42 10° E visible
22 Oct 5.6 06:44:50 10° N 06:50:05 83° E 06:55:18 10° S visible
22 Oct 6.5 19:43:31 10° SSW 19:48:34 49° W 19:53:39 10° N visible
23 Oct 6.6 06:11:27 10° N 06:16:29 46° E 06:21:29 10° SSE visible
23 Oct 5.6 19:09:46 10° S 19:14:59 88° W 19:20:14 10° N visible
23 Oct 8.7 20:54:48 10° W 20:56:30 11° WNW 20:58:14 10° NW visible
24 Oct 7.7 05:38:22 10° NNE 05:42:45 27° ENE 05:47:07 10° SE visible
24 Oct 6.0 07:18:45 10° NNW 07:23:34 39° W 07:28:22 10° SSW visible
24 Oct 8.2 20:18:44 10° WSW 20:22:34 20° WNW 20:26:25 10° NNW visible
25 Oct 8.4 05:05:50 10° NE 05:08:53 15° ENE 05:11:56 10° ESE visible
25 Oct 5.5 06:44:58 10° N 06:50:11 70° W 06:55:21 10° S visible
25 Oct 7.3 19:44:02 10° SW 19:48:46 35° W 19:53:33 10° NNW visible
26 Oct 5.9 06:11:26 10° N 06:16:39 66° E 06:21:49 10° SSE visible
26 Oct 6.1 19:09:57 10° SSW 19:15:06 63° W 19:20:18 10° N visible
27 Oct 7.0 05:38:09 10° NNE 05:43:00 37° E 05:47:48 10° SSE visible
27 Oct 6.4 07:19:10 10° NNW 07:23:33 28° W 07:27:54 10° SW visible
27 Oct 8.5 20:20:04 10° WSW 20:22:54 15° WNW 20:25:45 10° NW visible
28 Oct 7.9 05:05:14 10° NNE 05:09:13 22° ENE 05:13:10 10° SE visible
28 Oct 5.7 06:45:12 10° NNW 06:50:13 49° W 06:55:12 10° SSW visible
28 Oct 7.9 19:44:45 10° SW 19:49:01 25° WNW 19:53:20 10° NNW visible
29 Oct 8.6 04:33:12 10° NE 04:35:17 12° ENE 04:37:22 10° E visible
29 Oct 5.4 06:11:30 10° N 06:16:46 87° W 06:21:59 10° S visible
29 Oct 6.8 19:10:19 10° SSW 19:15:16 44° W 19:20:16 10° N visible
30 Oct 6.3 05:38:04 10° N 05:43:11 53° E 05:48:16 10° SSE visible
30 Oct 6.7 07:19:47 10° NNW 07:23:28 20° W 07:27:09 10° SW visible
30 Oct 5.8 18:36:27 10° S 18:41:40 79° W 18:46:55 10° N visible
31 Oct 7.3 05:04:55 10° NNE 05:09:29 30° ENE 05:14:02 10° SE visible
31 Oct 6.1 06:45:32 10° NNW 06:50:13 34° W 06:54:53 10° SSW visible
31 Oct 8.4 19:45:47 10° WSW 19:49:20 18° WNW 19:52:53 10° NNW visible
